Waukegan, IL

7:07 AM CDT on April 25, 2017 (GMT -0500)
Waukegan Regional

Weather History for KUGN - March, 2013

Change the Weather History Date:

Thursday, March 21, 2013

  Actual Average Record
Temperature  
Mean Temperature 22 °F -  
Max Temperature 31 °F 46 °F 84 °F (2012)
Min Temperature 12 °F 28 °F 12 °F (2013)
Degree Days  
Heating Degree Days 43 28  
Month to date heating degree days 781 660  
Since 1 July heating degree days 5382 5606  
Cooling Degree Days 0 0  
Month to date cooling degree days 0 0  
Year to date cooling degree days 0 0  
Moisture  
Dew Point 8 °F    
Average Humidity 57    
Maximum Humidity 68    
Minimum Humidity 46    
Precipitation  
Precipitation 0.00 in 0.08 in 1.15 in (2007)
Month to date precipitation 1.26 1.42  
Year to date precipitation 3.42 4.47  
Sea Level Pressure  
Sea Level Pressure 30.06 in    
Wind  
Wind Speed 6 mph (WNW)    
Max Wind Speed 13 mph    
Max Gust Speed 20 mph    
Visibility 10 miles    
Events      
T = Trace of Precipitation, MM = Missing Value Source: NWS Daily Summary

Daily Weather History Graph

Daily Weather History Graph

Search for Another Location

Airport or City:

Trip Planner

Search our weather history database for the weather conditions in past years. The results will help you decide how hot, cold, wet, or windy it might be!

Date:

Astronomy

Mar. 21, 2013 Rise Set
Actual Time 6:52 AM CDT 7:05 PM CDT
Civil Twilight 6:24 AM CDT 7:33 PM CDT
Nautical Twilight 5:51 AM CDT 8:06 PM CDT
Astronomical Twilight 5:18 AM CDT 8:39 PM CDT
Moon 1:29 PM CDT (3/21) 3:20 AM CDT (3/21)
Length of Visible Light 13h 08m
Length of Day
12h 12m
Waxing Gibbous, 69% of the Moon is Illuminated
Mar 21
Waxing Gibbous
Mar 27
Full
Apr 2
Last Quarter
Apr 10
New
Apr 18
First Quarter

Hourly Weather History & Observations

Time (CDT) Temp. Windchill Dew Point Humidity Pressure Visibility Wind Dir Wind Speed Gust Speed Precip Events Conditions
12:52 AM 14.0 °F 2.9 °F 1.9 °F 59% 30.07 in 10.0 mi WNW 8.1 mph 17.3 mph N/A   Clear
1:52 AM 14.0 °F 3.9 °F 1.9 °F 59% 30.07 in 10.0 mi WNW 6.9 mph - N/A   Clear
2:52 AM 12.9 °F 1.6 °F 3.0 °F 65% 30.07 in 10.0 mi WNW 8.1 mph - N/A   Clear
3:52 AM 12.9 °F 1.6 °F 3.0 °F 65% 30.06 in 10.0 mi WNW 8.1 mph - N/A   Clear
4:52 AM 12.0 °F 4.1 °F 3.0 °F 67% 30.05 in 10.0 mi West 4.6 mph - N/A   Clear
5:52 AM 12.0 °F 5.9 °F 3.0 °F 67% 30.06 in 10.0 mi West 3.5 mph - N/A   Clear
6:52 AM 12.0 °F 2.7 °F 3.0 °F 67% 30.07 in 10.0 mi West 5.8 mph - N/A   Clear
7:52 AM 14.0 °F 2.0 °F 3.9 °F 64% 30.06 in 10.0 mi West 9.2 mph - N/A   Clear
8:52 AM 17.1 °F 6.6 °F 6.1 °F 62% 30.06 in 10.0 mi WNW 8.1 mph - N/A   Clear
9:52 AM 21.0 °F 12.4 °F 8.1 °F 57% 30.06 in 10.0 mi West 6.9 mph - N/A   Clear
10:52 AM 23.0 °F 12.4 °F 9.0 °F 55% 30.08 in 10.0 mi West 10.4 mph - N/A   Clear
11:52 AM 25.0 °F 14.8 °F 10.0 °F 53% 30.08 in 10.0 mi WNW 10.4 mph 17.3 mph N/A   Clear
12:52 PM 27.0 °F 16.1 °F 10.0 °F 49% 30.08 in 10.0 mi NNW 12.7 mph 16.1 mph N/A   Clear
1:52 PM 28.0 °F 19.3 °F 10.9 °F 49% 30.07 in 10.0 mi NNW 9.2 mph - N/A   Clear
2:52 PM 28.9 °F 19.2 °F 10.9 °F 47% 30.06 in 10.0 mi WNW 11.5 mph 16.1 mph N/A   Clear
3:52 PM 30.0 °F 21.7 °F 12.0 °F 47% 30.05 in 10.0 mi WNW 9.2 mph - N/A   Clear
4:52 PM 30.0 °F 23.2 °F 12.0 °F 47% 30.04 in 10.0 mi West 6.9 mph - N/A   Clear
5:52 PM 30.0 °F 23.2 °F 12.9 °F 49% 30.04 in 10.0 mi WNW 6.9 mph - N/A   Clear
6:52 PM 27.0 °F 21.6 °F 12.0 °F 53% 30.04 in 10.0 mi WNW 4.6 mph - N/A   Clear
7:52 PM 25.0 °F 20.7 °F 12.0 °F 58% 30.06 in 10.0 mi West 3.5 mph - N/A   Clear
8:52 PM 23.0 °F - 12.0 °F 63% 30.07 in 10.0 mi Calm Calm - N/A   Clear
9:52 PM 21.9 °F - 12.9 °F 68% 30.08 in 10.0 mi Calm Calm - N/A   Clear
10:52 PM 21.9 °F 17.2 °F 12.0 °F 66% 30.08 in 10.0 mi West 3.5 mph - N/A   Clear
11:52 PM 21.0 °F 14.6 °F 12.0 °F 68% 30.07 in 10.0 mi West 4.6 mph - N/A   Clear